Location: Archamps
(46.1365°N, 6.1329°E)
Time: 12:34:00
(UTC+00:00)

ATLAS 2AS CENTAUR R/B - Pass Details

Date: 28 January 2023
Orbit: 986 x 1226 km, 63.7° (Epoch: 23 March)

Event Time Altitude Azimuth Distance (km) Brightness Sun altitude
Rises 17:19:18 0° 318° (NW) 4,025 6.1 -8.1°
Reaches altitude 10° 17:22:29 10° 329° (NNW) 3,023 5.3 -8.6°
Maximum altitude 17:28:42 31° 29° (NNE) 1,825 3.6 -9.7°
Enters shadow 17:34:03 12° 87° (E) 2,703 4.2 -10.5°
